Regional Weather Roundup
Issued by NWS Jackson, KY

Home | Current Version | Previous Version | Graphics & Text | Print | Product List | Glossary On
Versions: 1 2 3 4 5 6 7 8 9 10 11 12 13 14 15 16 17 18 19 20 21 22 23 24 25 26 27 28 29 30 31 32 33 34 35 36 37 38 39 40 41 42 43 44 45 46 47 48 49 50
000
ASUS43 KJKL 292310
RWRJKL

EAST KENTUCKY HOURLY WEATHER ROUNDUP
NATIONAL WEATHER SERVICE JACKSON KY
700 PM EDT WED JUL 29 2015

NOTE: "FAIR" INDICATES FEW OR NO CLOUDS BELOW 12,000 FEET WITH
NO SIGNIFICANT WEATHER AND/OR OBSTRUCTIONS TO VISIBILITY.

* THESE REPORTS ARE NOT UNDER NWS QUALITY CONTROL AND MAY NOT
  REPORT WEATHER SUCH AS PRECIPITATION AND FOG.

KYZ079-080-083-085-087-088-110-112-115-119-120-300000
...EASTERN KENTUCKY...

CITY           SKY/WX    TMP DP  RH WIND       PRES   REMARKS
JACKSON        MOSUNNY   85  73  67 CALM      30.00R HX  91
LONDON         SUNNY     88  68  51 W3        30.00R HX  91
SOMERSET*      CLOUDY    86  72  62 CALM      29.98S HX  92
MONTICELLO*    MOSUNNY   91  79  68 CALM      30.01R HX 107
MIDDLESBORO*   SUNNY     88  73  62 NW5       29.99R HX  96
BLACK MTN*       N/A     75  68  78 N2          N/A
PIKEVILLE APT* SUNNY     86  73  66 NW5       30.00R HX  93
BIG SANDY*     PTCLDY    87  72  60 CALM      29.98S HX  94
MOREHEAD APT*  PTCLDY    81  73  78 W7        29.99F
$$

KYZ035-036-041-042-044-050-067-078-099-300000
...CENTRAL KENTUCKY...

CITY           SKY/WX    TMP DP  RH WIND       PRES   REMARKS
MT STERLING*   LGT RAIN  73  73 100 W5G18     30.00F
FLEMING/MASON* SUNNY     77  72  83 W8        29.98F
DANVILLE*      PTSUNNY   82  77  83 S3        30.00R HX  91
RICHMOND*      PTSUNNY   82  73  74 W3        29.98S
LEXINGTON      CLOUDY    82  74  76 E6        29.98S
FRANKFORT      PTSUNNY   83  76  79 SE6       29.96R HX  91
$$

KYZ091>093-OHZ055-061-077-WVZ005-015-034-035-042-300000
...SOUTHERN OHIO/WEST VIRGINIA...

CITY           SKY/WX    TMP DP  RH WIND       PRES   REMARKS
COVINGTON      TSTM      78  72  81 N15G26    29.97R
COLUMBUS       TSTM      79  70  73 W18G29    29.94R
DAYTON         CLOUDY    81  75  82 S7        29.95F
WILMINGTON     CLOUDY    74  71  91 SE5       29.96F
HUNTINGTON     MOSUNNY   87  73  62 W7        29.94S HX  94
CHARLESTON     PTSUNNY   85  74  69 SE6       29.95R HX  92
PINEVILLE*     MOSUNNY   82  76  82 MISG      30.06R
BECKLEY        PTSUNNY   80  69  69 CALM      30.06S
BLUEFIELD      CLOUDY    75  67  76 CALM      30.09S
$$

VAZ002-007-008-TNZ017-027-036-066-071-300000
...SOUTHWEST VIRGINIA/EAST TENNESSEE...

CITY           SKY/WX    TMP DP  RH WIND       PRES   REMARKS
WISE*          SUNNY     84  66  54 NW5       30.09R
ABINGDON*      MOSUNNY   88  67  49 CALM      30.03R HX  90
BRISTOL        MOSUNNY   88  69  53 SW7       29.99R HX  92
KNOXVILLE      PTSUNNY   91  70  49 N3        29.96R HX  96
OAK RIDGE      SUNNY     91  72  53 CALM      29.98S HX  98
CROSSVILLE     MOSUNNY   87  71  58 NW7       30.04S HX  93
NASHVILLE      MOSUNNY   92  77  61 W7        29.96F HX 105
$$

...KEY TO REMARKS...
VSB - VISIBILITY IN MILES
WCI - WIND CHILL INDEX
HX  - HEAT INDEX

$$



USA.gov is the U.S. government's official web portal to all federal, state and local government web resources and services.